Saginaw, MI

7:58 AM EDT on March 29, 2017 (GMT -0400)
MBS International

Weather History for KMBS - January, 2013

Change the Weather History Date:

Friday, January 18, 2013

  Actual Average Record
Temperature  
Mean Temperature 23 °F 22 °F  
Max Temperature 36 °F 29 °F 40 °F (2015)
Min Temperature 10 °F 15 °F -5 °F (1997)
Degree Days  
Heating Degree Days 42    
Month to date heating degree days  
Since 1 July heating degree days  
Cooling Degree Days 0    
Month to date cooling degree days  
Year to date cooling degree days  
Moisture  
Dew Point 14 °F    
Average Humidity 68    
Maximum Humidity 81    
Minimum Humidity 54    
Precipitation  
Precipitation 0.00 in 0.05 in 0.28 in (1999)
Month to date precipitation 1.09  
Year to date precipitation 1.09  
Snow  
Snow 0.00 in - - ()
Month to date snowfall  
Since 1 July snowfall  
Snow Depth -    
Sea Level Pressure  
Sea Level Pressure 30.21 in    
Wind  
Wind Speed 9 mph (SSW)    
Max Wind Speed 22 mph    
Max Gust Speed 31 mph    
Visibility 9 miles    
Events Snow    
T = Trace of Precipitation, MM = Missing Value Source: NWS Daily Summary

Daily Weather History Graph

Daily Weather History Graph

Search for Another Location

Airport or City:

Trip Planner

Search our weather history database for the weather conditions in past years. The results will help you decide how hot, cold, wet, or windy it might be!

Date:

Astronomy

Jan. 18, 2013 Rise Set
Actual Time 8:04 AM EST 5:29 PM EST
Civil Twilight 7:33 AM EST 6:01 PM EST
Nautical Twilight 6:57 AM EST 6:36 PM EST
Astronomical Twilight 6:23 AM EST 7:10 PM EST
Moon 11:27 AM EST (1/18) 12:33 AM EST (1/18)
Length of Visible Light 10h 28m
Length of Day
9h 25m
Waxing Crescent, 47% of the Moon is Illuminated
Jan 18
Waxing Crescent
Jan 18
First Quarter
Jan 26
Full
Feb 3
Last Quarter
Feb 10
New

Hourly Weather History & Observations

Time (EST) Temp. Windchill Dew Point Humidity Pressure Visibility Wind Dir Wind Speed Gust Speed Precip Events Conditions
12:53 AM 14.0 °F 6.5 °F 6.1 °F 71% 30.37 in 10.0 mi West 4.6 mph - N/A   Mostly Cloudy
1:53 AM 14.0 °F 6.5 °F 7.0 °F 74% 30.39 in 10.0 mi WSW 4.6 mph - N/A   Clear
2:53 AM 15.1 °F 6.4 °F 7.0 °F 70% 30.43 in 10.0 mi West 5.8 mph - N/A   Overcast
3:53 AM 12.0 °F 4.1 °F 6.1 °F 77% 30.43 in 10.0 mi West 4.6 mph - N/A   Partly Cloudy
4:53 AM 12.0 °F 4.1 °F 5.0 °F 73% 30.42 in 10.0 mi West 4.6 mph - N/A   Clear
5:53 AM 10.9 °F 4.7 °F 6.1 °F 81% 30.43 in 10.0 mi SW 3.5 mph - N/A   Clear
6:53 AM 10.9 °F 4.7 °F 6.1 °F 81% 30.44 in 10.0 mi SSW 3.5 mph - N/A   Clear
7:53 AM 10.0 °F 1.8 °F 3.9 °F 76% 30.44 in 10.0 mi South 4.6 mph - N/A   Clear
8:53 AM 12.9 °F 2.6 °F 6.1 °F 74% 30.42 in 10.0 mi South 6.9 mph - N/A   Clear
9:53 AM 16.0 °F 5.3 °F 8.1 °F 71% 30.42 in 10.0 mi South 8.1 mph - N/A   Mostly Cloudy
10:53 AM 19.0 °F 6.8 °F 10.0 °F 68% 30.39 in 10.0 mi South 11.5 mph - N/A   Overcast
11:53 AM 21.9 °F 11.0 °F 12.9 °F 68% 30.33 in 10.0 mi South 10.4 mph - N/A   Overcast
12:11 PM 21.2 °F 8.9 °F 12.2 °F 68% 30.27 in 1.5 mi South 12.7 mph - 0.00 in Snow Light Snow
12:42 PM 23.0 °F 11.1 °F 15.8 °F 74% 30.23 in 2.0 mi South 12.7 mph - 0.00 in Snow Light Snow
12:53 PM 23.0 °F 10.6 °F 16.0 °F 74% 30.25 in 8.0 mi South 13.8 mph - 0.00 in   Overcast
1:53 PM 25.0 °F 12.6 °F 18.0 °F 75% 30.17 in 10.0 mi South 15.0 mph - N/A   Overcast
2:53 PM 28.9 °F 17.7 °F 18.0 °F 64% 30.10 in 10.0 mi South 15.0 mph - N/A   Overcast
3:53 PM 32.0 °F 20.8 °F 17.1 °F 54% 30.05 in 10.0 mi SSW 17.3 mph 24.2 mph N/A   Overcast
4:53 PM 33.1 °F 21.9 °F 19.9 °F 59% 30.01 in 10.0 mi SSW 18.4 mph 27.6 mph N/A   Clear
5:53 PM 34.0 °F 22.1 °F 21.0 °F 59% 29.97 in 10.0 mi SSW 21.9 mph 31.1 mph N/A   Scattered Clouds
6:53 PM 35.1 °F 25.5 °F 23.0 °F 61% 29.97 in 10.0 mi SSW 15.0 mph 23.0 mph N/A   Clear
7:53 PM 36.0 °F 26.0 °F 23.0 °F 59% 29.98 in 10.0 mi SW 17.3 mph 25.3 mph N/A   Clear
8:53 PM 36.0 °F 26.0 °F 23.0 °F 59% 29.95 in 10.0 mi SSW 17.3 mph 28.8 mph N/A   Clear
9:53 PM 35.1 °F 25.5 °F 21.9 °F 59% 29.92 in 10.0 mi SSW 15.0 mph 27.6 mph N/A   Clear
10:53 PM 35.1 °F 25.2 °F 21.9 °F 59% 29.89 in 10.0 mi SSW 16.1 mph 25.3 mph N/A   Clear
11:53 PM 35.1 °F 24.8 °F 21.9 °F 59% 29.87 in 10.0 mi SSW 17.3 mph 24.2 mph N/A   Clear